Location: Stara Lesna
(49.1528°N, 20.2911°E)
Time: 19:08:26
(UTC+02:00)

Cosmos 1725 Rocket - Pass Details

Date: 13 July 2020
Orbit: 963 x 990 km, 82.9° (Epoch: 10 August)

Event Time Altitude Azimuth Distance (km) Brightness Sun altitude
Exits shadow 02:55:24 16° 191° (S) 2,292 5.4 -13.3°
Maximum altitude 03:00:30 84° 278° (W) 984 4.0 -12.9°
Drops below altitude 10° 03:06:48 10° 8° (N) 2,738 7.5 -12.3°
Sets 03:09:20 0° 10° (N) 3,694 8.3 -12.1°
